Saint Bonnet de Bellac- Haute Vienne - France
Donnes mto: dimanche, 30/09/2012
Date Horaire Temp. E. Hum. E. P.atmo. Pluie Vent Direction Direction Ensoleilleme Solaire P. de rose Temp au vent Rafales
30/09/2012 00:00 11,2 C 78 % 1019,4 hPa 0,0 mm 0,4 km/h (0 Bft) NE 45 0 min 0 W/m 7,5 C 11,2 C 0,4 km/h (0 Bft)
30/09/2012 00:10 11,0 C 78 % 1019,5 hPa 0,0 mm 0,7 km/h (0 Bft) N-NO 337 0 min 0 W/m 7,3 C 11,0 C 4,0 km/h (1 Bft)
30/09/2012 00:20 10,8 C 79 % 1019,5 hPa 0,0 mm 4,0 km/h (1 Bft) NE 45 0 min 0 W/m 7,3 C 10,8 C 8,6 km/h (2 Bft)
30/09/2012 00:30 10,6 C 80 % 1019,5 hPa 0,0 mm 2,5 km/h (1 Bft) N-NE 22 0 min 0 W/m 7,3 C 10,6 C 3,6 km/h (1 Bft)
30/09/2012 00:40 10,6 C 80 % 1019,5 hPa 0,0 mm 7,9 km/h (2 Bft) E-NE 67 0 min 0 W/m 7,3 C 10,6 C 11,2 km/h (2 Bft)
30/09/2012 00:50 10,5 C 81 % 1019,6 hPa 0,0 mm 3,2 km/h (1 Bft) NE 45 0 min 0 W/m 7,4 C 10,5 C 11,9 km/h (2 Bft)
30/09/2012 01:00 10,4 C 81 % 1019,6 hPa 0,0 mm 4,0 km/h (1 Bft) N-NE 22 0 min 0 W/m 7,3 C 10,4 C 4,0 km/h (1 Bft)
30/09/2012 01:10 10,3 C 81 % 1019,6 hPa 0,0 mm 4,7 km/h (1 Bft) N 360 0 min 0 W/m 7,2 C 10,3 C 7,6 km/h (2 Bft)
30/09/2012 01:20 10,1 C 82 % 1019,6 hPa 0,0 mm 2,9 km/h (1 Bft) N 360 0 min 0 W/m 7,2 C 10,1 C 8,6 km/h (2 Bft)
30/09/2012 01:30 10,0 C 82 % 1019,7 hPa 0,0 mm 1,8 km/h (1 Bft) N 360 0 min 0 W/m 7,1 C 10,0 C 3,6 km/h (1 Bft)
30/09/2012 01:40 9,9 C 83 % 1019,8 hPa 0,0 mm 1,8 km/h (1 Bft) NE 45 0 min 0 W/m 7,2 C 9,9 C 1,8 km/h (1 Bft)
30/09/2012 01:50 9,8 C 83 % 1020,0 hPa 0,0 mm 4,0 km/h (1 Bft) N 360 0 min 0 W/m 7,1 C 9,8 C 6,8 km/h (2 Bft)
30/09/2012 02:00 9,6 C 83 % 1020,0 hPa 0,0 mm 6,8 km/h (2 Bft) N-NO 337 0 min 0 W/m 6,9 C 8,8 C 9,7 km/h (2 Bft)
30/09/2012 02:10 9,6 C 84 % 1019,9 hPa 0,0 mm 3,6 km/h (1 Bft) E-NE 67 0 min 0 W/m 7,0 C 9,6 C 8,6 km/h (2 Bft)
30/09/2012 02:20 9,6 C 84 % 1020,0 hPa 0,0 mm 6,8 km/h (2 Bft) N-NE 22 0 min 0 W/m 7,0 C 8,8 C 9,7 km/h (2 Bft)
30/09/2012 02:30 9,5 C 84 % 1020,0 hPa 0,0 mm 7,9 km/h (2 Bft) NE 45 0 min 0 W/m 6,9 C 8,4 C 7,9 km/h (2 Bft)
30/09/2012 02:40 9,4 C 84 % 1020,1 hPa 0,0 mm 1,1 km/h (1 Bft) N-NE 22 0 min 0 W/m 6,8 C 9,4 C 3,2 km/h (1 Bft)
30/09/2012 02:50 9,3 C 84 % 1020,3 hPa 0,0 mm 1,4 km/h (1 Bft) E-NE 67 0 min 0 W/m 6,7 C 9,3 C 6,8 km/h (2 Bft)
30/09/2012 03:02 9,1 C 84 % 1020,3 hPa 0,0 mm 0,7 km/h (0 Bft) N-NE 22 0 min 0 W/m 6,5 C 9,1 C 0,7 km/h (0 Bft)
30/09/2012 03:10 8,9 C 84 % 1020,3 hPa 0,0 mm 0,0 km/h (0 Bft) NE 45 0 min 0 W/m 6,3 C 8,9 C 0,0 km/h (0 Bft)
30/09/2012 03:20 8,8 C 84 % 1020,3 hPa 0,0 mm 1,8 km/h (1 Bft) E-NE 67 0 min 0 W/m 6,2 C 8,8 C 4,3 km/h (1 Bft)
30/09/2012 03:30 8,6 C 85 % 1020,3 hPa 0,0 mm 1,8 km/h (1 Bft) NE 45 0 min 0 W/m 6,2 C 8,6 C 1,8 km/h (1 Bft)
30/09/2012 03:40 8,5 C 85 % 1020,3 hPa 0,0 mm 1,4 km/h (1 Bft) N-NO 337 0 min 0 W/m 6,1 C 8,5 C 4,3 km/h (1 Bft)
30/09/2012 03:50 8,3 C 85 % 1020,2 hPa 0,0 mm 2,5 km/h (1 Bft) NE 45 0 min 0 W/m 5,9 C 8,3 C 3,2 km/h (1 Bft)
30/09/2012 04:00 8,2 C 85 % 1020,2 hPa 0,0 mm 1,1 km/h (1 Bft) NE 45 0 min 0 W/m 5,8 C 8,2 C 3,2 km/h (1 Bft)
30/09/2012 04:10 8,1 C 86 % 1020,1 hPa 0,0 mm 1,8 km/h (1 Bft) N-NE 22 0 min 0 W/m 5,9 C 8,1 C 7,6 km/h (2 Bft)
30/09/2012 04:20 8,0 C 86 % 1020,1 hPa 0,0 mm 5,4 km/h (2 Bft) N-NE 22 0 min 0 W/m 5,8 C 7,4 C 8,3 km/h (2 Bft)
30/09/2012 04:30 7,9 C 86 % 1020,0 hPa 0,0 mm 1,1 km/h (1 Bft) N 360 0 min 0 W/m 5,7 C 7,9 C 3,6 km/h (1 Bft)
30/09/2012 04:40 7,8 C 87 % 1020,0 hPa 0,0 mm 0,4 km/h (0 Bft) N-NE 22 0 min 0 W/m 5,8 C 7,8 C 3,2 km/h (1 Bft)
30/09/2012 04:50 7,8 C 87 % 1020,2 hPa 0,0 mm 0,4 km/h (0 Bft) N 360 0 min 0 W/m 5,8 C 7,8 C 0,4 km/h (0 Bft)
30/09/2012 05:00 7,5 C 87 % 1020,3 hPa 0,0 mm 1,1 km/h (1 Bft) N 360 0 min 0 W/m 5,5 C 7,5 C 3,6 km/h (1 Bft)
30/09/2012 05:10 7,3 C 87 % 1020,4 hPa 0,0 mm 0,0 km/h (0 Bft) N-NE 22 0 min 0 W/m 5,3 C 7,3 C 0,0 km/h (0 Bft)
30/09/2012 05:20 7,1 C 87 % 1020,4 hPa 0,0 mm 0,4 km/h (0 Bft) N 360 0 min 0 W/m 5,1 C 7,1 C 0,4 km/h (0 Bft)
30/09/2012 05:30 6,9 C 87 % 1020,3 hPa 0,0 mm 0,0 km/h (0 Bft) N 360 0 min 0 W/m 4,9 C 6,9 C 0,0 km/h (0 Bft)
30/09/2012 05:40 6,8 C 87 % 1020,5 hPa 0,0 mm 0,0 km/h (0 Bft) N 360 0 min 0 W/m 4,8 C 6,8 C 0,0 km/h (0 Bft)
30/09/2012 05:50 6,6 C 87 % 1020,3 hPa 0,0 mm 0,0 km/h (0 Bft) N-NE 22 0 min 0 W/m 4,6 C 6,6 C 0,0 km/h (0 Bft)
30/09/2012 06:00 6,4 C 88 % 1020,3 hPa 0,0 mm 1,1 km/h (1 Bft) N 360 0 min 0 W/m 4,6 C 6,4 C 4,3 km/h (1 Bft)
30/09/2012 06:10 6,3 C 88 % 1020,2 hPa 0,0 mm 0,0 km/h (0 Bft) N-NE 22 0 min 0 W/m 4,5 C 6,3 C 0,0 km/h (0 Bft)
30/09/2012 06:20 6,2 C 88 % 1020,3 hPa 0,0 mm 0,0 km/h (0 Bft) O 270 0 min 0 W/m 4,4 C 6,2 C 0,0 km/h (0 Bft)
30/09/2012 06:30 5,9 C 88 % 1020,3 hPa 0,0 mm 0,0 km/h (0 Bft) O 270 0 min 0 W/m 4,1 C 5,9 C 0,0 km/h (0 Bft)
30/09/2012 06:40 5,7 C 88 % 1020,4 hPa 0,0 mm 0,0 km/h (0 Bft) O 270 0 min 0 W/m 3,9 C 5,7 C 0,0 km/h (0 Bft)
30/09/2012 06:50 5,5 C 88 % 1020,4 hPa 0,0 mm 0,0 km/h (0 Bft) O 270 0 min 0 W/m 3,7 C 5,5 C 0,0 km/h (0 Bft)
30/09/2012 07:00 5,3 C 88 % 1020,3 hPa 0,0 mm 0,0 km/h (0 Bft) O 270 0 min 0 W/m 3,5 C 5,3 C 0,0 km/h (0 Bft)
30/09/2012 07:10 5,1 C 88 % 1020,3 hPa 0,0 mm 0,0 km/h (0 Bft) O-NO 292 0 min 0 W/m 3,3 C 5,1 C 0,0 km/h (0 Bft)
30/09/2012 07:20 5,1 C 88 % 1020,3 hPa 0,0 mm 0,0 km/h (0 Bft) O-NO 292 0 min 0 W/m 3,3 C 5,1 C 0,0 km/h (0 Bft)
30/09/2012 07:30 4,9 C 88 % 1020,2 hPa 0,0 mm 0,0 km/h (0 Bft) O-NO 292 0 min 0 W/m 3,1 C 4,9 C 0,0 km/h (0 Bft)
30/09/2012 07:40 4,9 C 89 % 1020,1 hPa 0,0 mm 0,0 km/h (0 Bft) O-NO 292 0 min 0 W/m 3,2 C 4,9 C 0,0 km/h (0 Bft)
30/09/2012 07:50 4,8 C 89 % 1020,3 hPa 0,0 mm 0,0 km/h (0 Bft) O-NO 292 0 min 0 W/m 3,1 C 4,8 C 0,0 km/h (0 Bft)
30/09/2012 08:00 4,6 C 89 % 1020,2 hPa 0,0 mm 0,0 km/h (0 Bft) O-NO 292 0 min 0 W/m 2,9 C 4,6 C 0,0 km/h (0 Bft)
30/09/2012 08:10 4,6 C 89 % 1020,1 hPa 0,0 mm 0,0 km/h (0 Bft) O-NO 292 0 min 0 W/m 2,9 C 4,6 C 0,0 km/h (0 Bft)
30/09/2012 08:20 4,6 C 89 % 1020,2 hPa 0,0 mm 0,0 km/h (0 Bft) O-NO 292 0 min 0 W/m 2,9 C 4,6 C 0,0 km/h (0 Bft)
30/09/2012 08:30 4,6 C 90 % 1020,3 hPa 0,0 mm 0,0 km/h (0 Bft) NO 315 0 min 0 W/m 3,1 C 4,6 C 0,0 km/h (0 Bft)
30/09/2012 08:40 4,8 C 90 % 1020,4 hPa 0,0 mm 0,0 km/h (0 Bft) N-NO 337 0 min 0 W/m 3,3 C 4,8 C 0,0 km/h (0 Bft)
30/09/2012 08:50 5,1 C 90 % 1020,4 hPa 0,0 mm 1,1 km/h (1 Bft) N-NE 22 0 min 0 W/m 3,6 C 5,1 C 4,0 km/h (1 Bft)
30/09/2012 09:00 5,8 C 90 % 1020,5 hPa 0,0 mm 0,0 km/h (0 Bft) NE 45 0 min 0 W/m 4,3 C 5,8 C 1,8 km/h (1 Bft)
30/09/2012 09:10 6,8 C 91 % 1021,0 hPa 0,0 mm 0,4 km/h (0 Bft) N-NE 22 0 min 0 W/m 5,4 C 6,8 C 0,4 km/h (0 Bft)
30/09/2012 09:20 7,5 C 91 % 1020,9 hPa 0,0 mm 0,0 km/h (0 Bft) N-NE 22 0 min 0 W/m 6,1 C 7,5 C 0,0 km/h (0 Bft)
30/09/2012 09:30 8,3 C 91 % 1021,1 hPa 0,0 mm 2,9 km/h (1 Bft) N-NE 22 0 min 0 W/m 6,9 C 8,3 C 4,3 km/h (1 Bft)
30/09/2012 09:40 9,3 C 91 % 1021,1 hPa 0,0 mm 0,0 km/h (0 Bft) N-NE 22 0 min 0 W/m 7,9 C 9,3 C 0,0 km/h (0 Bft)
30/09/2012 09:50 10,1 C 89 % 1021,2 hPa 0,0 mm 1,4 km/h (1 Bft) NE 45 0 min 0 W/m 8,4 C 10,1 C 4,3 km/h (1 Bft)
30/09/2012 10:00 10,8 C 87 % 1021,3 hPa 0,0 mm 5,8 km/h (2 Bft) N-NE 22 0 min 0 W/m 8,7 C 10,8 C 7,9 km/h (2 Bft)
30/09/2012 10:10 11,4 C 84 % 1021,4 hPa 0,0 mm 1,4 km/h (1 Bft) N-NE 22 0 min 0 W/m 8,8 C 11,4 C 3,6 km/h (1 Bft)
30/09/2012 10:20 12,1 C 83 % 1021,4 hPa 0,0 mm 1,1 km/h (1 Bft) NE 45 0 min 0 W/m 9,3 C 12,1 C 4,3 km/h (1 Bft)
30/09/2012 10:30 12,9 C 81 % 1021,6 hPa 0,0 mm 3,2 km/h (1 Bft) N-NE 22 0 min 0 W/m 9,7 C 12,9 C 4,3 km/h (1 Bft)
30/09/2012 10:40 13,6 C 79 % 1021,7 hPa 0,0 mm 2,9 km/h (1 Bft) N-NE 22 0 min 0 W/m 10,0 C 13,6 C 6,5 km/h (2 Bft)
30/09/2012 10:50 14,1 C 77 % 1021,6 hPa 0,0 mm 1,4 km/h (1 Bft) N-NE 22 0 min 0 W/m 10,1 C 14,1 C 1,4 km/h (1 Bft)
30/09/2012 11:00 14,9 C 74 % 1021,7 hPa 0,0 mm 2,9 km/h (1 Bft) N-NE 22 0 min 0 W/m 10,3 C 14,9 C 4,0 km/h (1 Bft)
30/09/2012 11:10 15,5 C 73 % 1021,7 hPa 0,0 mm 4,7 km/h (1 Bft) N 360 0 min 0 W/m 10,7 C 15,5 C 6,1 km/h (2 Bft)
30/09/2012 11:20 16,2 C 71 % 1021,7 hPa 0,0 mm 1,8 km/h (1 Bft) N-NE 22 0 min 0 W/m 10,9 C 16,2 C 3,6 km/h (1 Bft)
30/09/2012 11:30 16,6 C 69 % 1021,8 hPa 0,0 mm 2,2 km/h (1 Bft) N-NE 22 0 min 0 W/m 10,9 C 16,6 C 4,3 km/h (1 Bft)
30/09/2012 11:40 17,2 C 68 % 1021,7 hPa 0,0 mm 2,2 km/h (1 Bft) E-NE 67 0 min 0 W/m 11,2 C 17,2 C 6,8 km/h (2 Bft)
30/09/2012 11:50 17,6 C 65 % 1021,8 hPa 0,0 mm 2,2 km/h (1 Bft) N 360 0 min 0 W/m 10,9 C 17,6 C 6,5 km/h (2 Bft)
30/09/2012 12:00 17,9 C 64 % 1021,8 hPa 0,0 mm 4,0 km/h (1 Bft) NE 45 0 min 0 W/m 11,0 C 17,9 C 9,0 km/h (2 Bft)
30/09/2012 12:10 18,2 C 63 % 1021,9 hPa 0,0 mm 6,1 km/h (2 Bft) N-NE 22 0 min 0 W/m 11,0 C 18,2 C 7,9 km/h (2 Bft)
30/09/2012 12:20 18,3 C 62 % 1021,9 hPa 0,0 mm 2,2 km/h (1 Bft) E-NE 67 0 min 0 W/m 10,9 C 18,3 C 4,3 km/h (1 Bft)
30/09/2012 12:30 18,8 C 61 % 1021,9 hPa 0,0 mm 4,0 km/h (1 Bft) E-NE 67 0 min 0 W/m 11,1 C 18,8 C 4,3 km/h (1 Bft)
30/09/2012 12:40 18,9 C 58 % 1021,9 hPa 0,0 mm 4,3 km/h (1 Bft) E-NE 67 0 min 0 W/m 10,5 C 18,9 C 8,3 km/h (2 Bft)
30/09/2012 12:50 19,1 C 57 % 1021,8 hPa 0,0 mm 6,8 km/h (2 Bft) N-NE 22 0 min 0 W/m 10,4 C 19,1 C 9,0 km/h (2 Bft)
30/09/2012 13:00 19,1 C 54 % 1021,8 hPa 0,0 mm 9,0 km/h (2 Bft) N-NE 22 0 min 0 W/m 9,6 C 19,1 C 13,7 km/h (3 Bft)
30/09/2012 13:10 19,2 C 55 % 1021,8 hPa 0,0 mm 7,6 km/h (2 Bft) N-NE 22 0 min 0 W/m 9,9 C 19,2 C 11,5 km/h (2 Bft)
30/09/2012 13:20 19,4 C 56 % 1021,7 hPa 0,0 mm 6,8 km/h (2 Bft) NE 45 0 min 0 W/m 10,4 C 19,4 C 16,2 km/h (3 Bft)
30/09/2012 13:30 19,4 C 55 % 1021,6 hPa 0,0 mm 6,1 km/h (2 Bft) N-NE 22 0 min 0 W/m 10,1 C 19,4 C 6,8 km/h (2 Bft)
30/09/2012 13:40 19,6 C 54 % 1021,6 hPa 0,0 mm 7,9 km/h (2 Bft) E-NE 67 0 min 0 W/m 10,0 C 19,6 C 13,0 km/h (3 Bft)
30/09/2012 13:50 19,6 C 55 % 1021,5 hPa 0,0 mm 0,4 km/h (0 Bft) N-NE 22 0 min 0 W/m 10,3 C 19,6 C 4,3 km/h (1 Bft)
30/09/2012 14:00 19,8 C 53 % 1021,5 hPa 0,0 mm 5,4 km/h (2 Bft) NE 45 0 min 0 W/m 9,9 C 19,8 C 6,1 km/h (2 Bft)
30/09/2012 14:10 19,7 C 53 % 1021,3 hPa 0,0 mm 7,6 km/h (2 Bft) NO 315 0 min 0 W/m 9,8 C 19,7 C 13,0 km/h (3 Bft)
30/09/2012 14:20 19,9 C 53 % 1021,1 hPa 0,0 mm 9,0 km/h (2 Bft) N-NE 22 0 min 0 W/m 10,0 C 19,9 C 12,2 km/h (2 Bft)
30/09/2012 14:30 20,2 C 53 % 1020,8 hPa 0,0 mm 3,6 km/h (1 Bft) N-NO 337 0 min 0 W/m 10,3 C 20,2 C 6,5 km/h (2 Bft)
30/09/2012 14:40 20,3 C 52 % 1020,7 hPa 0,0 mm 5,0 km/h (1 Bft) NE 45 0 min 0 W/m 10,1 C 20,3 C 5,0 km/h (1 Bft)
30/09/2012 14:50 20,3 C 52 % 1020,7 hPa 0,0 mm 1,4 km/h (1 Bft) N 360 0 min 0 W/m 10,1 C 20,3 C 6,8 km/h (2 Bft)
30/09/2012 15:00 20,4 C 50 % 1020,6 hPa 0,0 mm 6,8 km/h (2 Bft) N 360 0 min 0 W/m 9,6 C 20,4 C 7,6 km/h (2 Bft)
30/09/2012 15:10 20,3 C 51 % 1020,5 hPa 0,0 mm 5,0 km/h (1 Bft) N 360 0 min 0 W/m 9,8 C 20,3 C 5,0 km/h (1 Bft)
30/09/2012 15:20 20,2 C 50 % 1020,4 hPa 0,0 mm 8,3 km/h (2 Bft) N 360 0 min 0 W/m 9,4 C 20,2 C 8,6 km/h (2 Bft)
30/09/2012 15:30 20,0 C 50 % 1020,2 hPa 0,0 mm 5,0 km/h (1 Bft) N-NE 22 0 min 0 W/m 9,3 C 20,0 C 8,6 km/h (2 Bft)
30/09/2012 15:40 19,8 C 51 % 1020,1 hPa 0,0 mm 5,4 km/h (2 Bft) N-NE 22 0 min 0 W/m 9,4 C 19,8 C 9,7 km/h (2 Bft)
30/09/2012 15:50 19,8 C 51 % 1020,0 hPa 0,0 mm 3,6 km/h (1 Bft) N 360 0 min 0 W/m 9,4 C 19,8 C 6,5 km/h (2 Bft)
30/09/2012 16:00 19,6 C 51 % 1019,9 hPa 0,0 mm 7,9 km/h (2 Bft) NE 45 0 min 0 W/m 9,2 C 19,6 C 13,7 km/h (3 Bft)
30/09/2012 16:10 19,6 C 51 % 1019,8 hPa 0,0 mm 6,5 km/h (2 Bft) E-NE 67 0 min 0 W/m 9,2 C 19,6 C 8,6 km/h (2 Bft)
30/09/2012 16:20 19,6 C 52 % 1019,7 hPa 0,0 mm 4,0 km/h (1 Bft) N-NO 337 0 min 0 W/m 9,5 C 19,6 C 6,1 km/h (2 Bft)
30/09/2012 16:30 19,6 C 51 % 1019,6 hPa 0,0 mm 6,8 km/h (2 Bft) N-NE 22 0 min 0 W/m 9,2 C 19,6 C 12,6 km/h (3 Bft)
30/09/2012 16:40 19,7 C 50 % 1019,7 hPa 0,0 mm 5,0 km/h (1 Bft) N 360 0 min 0 W/m 9,0 C 19,7 C 7,9 km/h (2 Bft)
30/09/2012 16:50 19,6 C 51 % 1019,6 hPa 0,0 mm 5,8 km/h (2 Bft) N-NE 22 0 min 0 W/m 9,2 C 19,6 C 10,4 km/h (2 Bft)
30/09/2012 17:00 19,5 C 51 % 1019,5 hPa 0,0 mm 5,0 km/h (1 Bft) NO 315 0 min 0 W/m 9,1 C 19,5 C 8,6 km/h (2 Bft)
30/09/2012 17:10 19,6 C 51 % 1019,5 hPa 0,0 mm 0,0 km/h (0 Bft) N-NE 22 0 min 0 W/m 9,2 C 19,6 C 0,0 km/h (0 Bft)
30/09/2012 17:20 19,8 C 51 % 1019,5 hPa 0,0 mm 1,1 km/h (1 Bft) NE 45 0 min 0 W/m 9,4 C 19,8 C 6,8 km/h (2 Bft)
30/09/2012 17:30 19,7 C 51 % 1019,4 hPa 0,0 mm 3,2 km/h (1 Bft) N 360 0 min 0 W/m 9,3 C 19,7 C 6,5 km/h (2 Bft)
30/09/2012 17:40 19,6 C 51 % 1019,3 hPa 0,0 mm 5,4 km/h (2 Bft) N-NE 22 0 min 0 W/m 9,2 C 19,6 C 8,6 km/h (2 Bft)
30/09/2012 17:50 19,5 C 51 % 1019,2 hPa 0,0 mm 0,0 km/h (0 Bft) N-NE 22 0 min 0 W/m 9,1 C 19,5 C 0,0 km/h (0 Bft)
30/09/2012 18:00 19,4 C 50 % 1019,1 hPa 0,0 mm 7,2 km/h (2 Bft) N 360 0 min 0 W/m 8,7 C 19,4 C 9,7 km/h (2 Bft)
30/09/2012 18:10 19,1 C 51 % 1019,1 hPa 0,0 mm 6,5 km/h (2 Bft) N-NE 22 0 min 0 W/m 8,7 C 19,1 C 9,0 km/h (2 Bft)
30/09/2012 18:20 18,8 C 51 % 1019,1 hPa 0,0 mm 2,5 km/h (1 Bft) N-NE 22 0 min 0 W/m 8,4 C 18,8 C 4,0 km/h (1 Bft)
30/09/2012 18:30 18,6 C 52 % 1019,1 hPa 0,0 mm 0,7 km/h (0 Bft) N-NE 22 0 min 0 W/m 8,5 C 18,6 C 4,0 km/h (1 Bft)
30/09/2012 18:40 18,5 C 53 % 1019,1 hPa 0,0 mm 2,2 km/h (1 Bft) N-NE 22 0 min 0 W/m 8,7 C 18,5 C 4,3 km/h (1 Bft)
30/09/2012 18:50 18,4 C 53 % 1019,1 hPa 0,0 mm 0,0 km/h (0 Bft) N-NE 22 0 min 0 W/m 8,6 C 18,4 C 0,0 km/h (0 Bft)
30/09/2012 19:00 18,0 C 54 % 1019,2 hPa 0,0 mm 0,4 km/h (0 Bft) N-NE 22 0 min 0 W/m 8,6 C 18,0 C 3,6 km/h (1 Bft)
30/09/2012 19:10 17,4 C 55 % 1019,2 hPa 0,0 mm 0,0 km/h (0 Bft) N-NE 22 0 min 0 W/m 8,3 C 17,4 C 0,0 km/h (0 Bft)
30/09/2012 19:20 16,8 C 56 % 1019,2 hPa 0,0 mm 0,0 km/h (0 Bft) N 360 0 min 0 W/m 8,0 C 16,8 C 0,0 km/h (0 Bft)
30/09/2012 19:30 16,1 C 58 % 1019,2 hPa 0,0 mm 0,0 km/h (0 Bft) N-NE 22 0 min 0 W/m 7,8 C 16,1 C 0,0 km/h (0 Bft)
30/09/2012 19:40 15,4 C 59 % 1019,2 hPa 0,0 mm 0,0 km/h (0 Bft) N-NE 22 0 min 0 W/m 7,4 C 15,4 C 0,0 km/h (0 Bft)
30/09/2012 19:50 14,8 C 60 % 1019,1 hPa 0,0 mm 0,0 km/h (0 Bft) N-NE 22 0 min 0 W/m 7,1 C 14,8 C 0,0 km/h (0 Bft)
30/09/2012 20:00 14,2 C 62 % 1019,2 hPa 0,0 mm 0,0 km/h (0 Bft) N-NE 22 0 min 0 W/m 7,0 C 14,2 C 0,0 km/h (0 Bft)
30/09/2012 20:10 13,7 C 63 % 1019,2 hPa 0,0 mm 0,0 km/h (0 Bft) N-NE 22 0 min 0 W/m 6,8 C 13,7 C 0,0 km/h (0 Bft)
30/09/2012 20:20 13,1 C 64 % 1019,3 hPa 0,0 mm 0,0 km/h (0 Bft) N-NE 22 0 min 0 W/m 6,4 C 13,1 C 0,0 km/h (0 Bft)
30/09/2012 20:30 12,6 C 65 % 1019,3 hPa 0,0 mm 0,0 km/h (0 Bft) N-NE 22 0 min 0 W/m 6,2 C 12,6 C 0,0 km/h (0 Bft)
30/09/2012 20:40 12,1 C 67 % 1019,4 hPa 0,0 mm 0,0 km/h (0 Bft) N-NO 337 0 min 0 W/m 6,2 C 12,1 C 0,0 km/h (0 Bft)
30/09/2012 20:50 11,8 C 68 % 1019,5 hPa 0,0 mm 0,0 km/h (0 Bft) N-NO 337 0 min 0 W/m 6,1 C 11,8 C 0,0 km/h (0 Bft)
30/09/2012 21:00 11,4 C 69 % 1019,6 hPa 0,0 mm 0,0 km/h (0 Bft) N-NO 337 0 min 0 W/m 5,9 C 11,4 C 0,0 km/h (0 Bft)
30/09/2012 21:10 11,1 C 69 % 1019,6 hPa 0,0 mm 0,0 km/h (0 Bft) N-NO 337 0 min 0 W/m 5,6 C 11,1 C 0,0 km/h (0 Bft)
30/09/2012 21:20 10,8 C 70 % 1019,6 hPa 0,0 mm 0,0 km/h (0 Bft) N-NO 337 0 min 0 W/m 5,6 C 10,8 C 0,0 km/h (0 Bft)
30/09/2012 21:30 10,5 C 71 % 1019,6 hPa 0,0 mm 0,0 km/h (0 Bft) N-NO 337 0 min 0 W/m 5,5 C 10,5 C 0,0 km/h (0 Bft)
30/09/2012 21:40 10,3 C 73 % 1019,7 hPa 0,0 mm 0,0 km/h (0 Bft) N-NO 337 0 min 0 W/m 5,7 C 10,3 C 0,0 km/h (0 Bft)
30/09/2012 21:50 10,1 C 73 % 1019,6 hPa 0,0 mm 0,0 km/h (0 Bft) N 360 0 min 0 W/m 5,5 C 10,1 C 0,0 km/h (0 Bft)
30/09/2012 22:00 9,9 C 73 % 1019,7 hPa 0,0 mm 0,0 km/h (0 Bft) N-NO 337 0 min 0 W/m 5,3 C 9,9 C 0,0 km/h (0 Bft)
30/09/2012 22:10 9,8 C 74 % 1019,7 hPa 0,0 mm 0,0 km/h (0 Bft) N-NO 337 0 min 0 W/m 5,4 C 9,8 C 0,0 km/h (0 Bft)
30/09/2012 22:20 9,7 C 75 % 1019,8 hPa 0,0 mm 0,0 km/h (0 Bft) N-NO 337 0 min 0 W/m 5,5 C 9,7 C 0,0 km/h (0 Bft)
30/09/2012 22:30 9,6 C 76 % 1019,8 hPa 0,0 mm 0,0 km/h (0 Bft) N-NO 337 0 min 0 W/m 5,6 C 9,6 C 0,0 km/h (0 Bft)
30/09/2012 22:40 9,5 C 76 % 1019,8 hPa 0,0 mm 0,0 km/h (0 Bft) N 360 0 min 0 W/m 5,5 C 9,5 C 0,0 km/h (0 Bft)
30/09/2012 22:50 9,4 C 77 % 1019,8 hPa 0,0 mm 0,0 km/h (0 Bft) N-NO 337 0 min 0 W/m 5,6 C 9,4 C 0,0 km/h (0 Bft)
30/09/2012 23:00 9,2 C 77 % 1019,8 hPa 0,0 mm 0,0 km/h (0 Bft) N-NO 337 0 min 0 W/m 5,4 C 9,2 C 0,0 km/h (0 Bft)
30/09/2012 23:10 9,1 C 78 % 1019,8 hPa 0,0 mm 0,0 km/h (0 Bft) N-NO 337 0 min 0 W/m 5,5 C 9,1 C 0,0 km/h (0 Bft)
30/09/2012 23:20 8,8 C 78 % 1019,9 hPa 0,0 mm 0,0 km/h (0 Bft) N-NO 337 0 min 0 W/m 5,2 C 8,8 C 0,0 km/h (0 Bft)
30/09/2012 23:30 8,5 C 78 % 1019,9 hPa 0,0 mm 0,0 km/h (0 Bft) N-NO 337 0 min 0 W/m 4,9 C 8,5 C 0,0 km/h (0 Bft)
30/09/2012 23:40 8,4 C 79 % 1019,9 hPa 0,0 mm 0,0 km/h (0 Bft) N-NO 337 0 min 0 W/m 5,0 C 8,4 C 0,0 km/h (0 Bft)
30/09/2012 23:50 8,3 C 80 % 1019,9 hPa 0,0 mm 0,0 km/h (0 Bft) N-NO 337 0 min 0 W/m 5,1 C 8,3 C 0,0 km/h (0 Bft)
_ Min-Heure 08:30 18:00 19:50 - 23:50 - - - - 08:20 08:30 23:50
Minimum _ 4,6 C 50 % 1019,1 hPa - 0,0 km/h (0 Bft) - - - - 2,9 C 4,6 C 0,0 km/h (0 Bft)
_ Max-Heure 15:00 09:40 12:40 23:50 14:20 - - 23:50 23:50 11:40 15:00 13:20
Maximum _ 20,4 C 91 % 1021,9 hPa 0,0 mm 9,0 km/h
N-NE (2 Bft)
- - 0 min 0 W/m 11,2 C 20,4 C 16,2 km/h
NE (3 Bft)
Moyenne _ 12,6 C 72 % 1020,2 hPa #0,0 mm 2,3 km/h (1 Bft) N-NE - #0 min. 0 W/m 7,2 C 12,5 C 4,0 km/h (1 Bft)
Saint Bonnet de Bellac- Haute Vienne - France